STARLINK-6029, 56803

Orbit data source: Space-Track

STARLINK-6029, 56803 is a payload satellite owned by SpaceX/Seattle (US) in LEO that was launched on Wed, 31 May 2023 UTC via an FALCON 9 launch vehicle from the Air Force Western Test Range (AFWTR). Payload-class satellites include a variety of spacecraft equipped with specific instruments for various scientific and technological missions. These include communications satellites like Starlink; space stations such as the ISS; scientific satellites like the Hubble; Earth observation satellites from companies like Planet Labs, Umbra, and HawkEye 360; GPS; miniature CubeSats for education and research; and military/defense satellites.

Loading next visibility...
Identifier
56803, 2023-078AN
Orbit
LEO
Last TLE update
13 hours ago
Origin
Manufacturer
SpaceX/Seattle
Mission
Operational Commercial Communications
Bus & Motor
STARLINK, Unknown motor
Mass
305 kg wet, ~290 kg dry
Launch date (UTC)
2023-05-31 (2 years ago)
Launch vehicle
FALCON 9
Launch site
Air Force Western Test Range (AFWTR)
Object type
Payload
Rocket body
Debris
Shape & HBR
Box + 1 Pan, 9 m
Radar Cross Section
11.087 m², Large (>1 m²)

Expand to show TLE details & history

TLE from 13 hours ago
0 STARLINK-6029
1 56803U 23078AN  25131.41913598 -.00000338  00000-0 -20497-4 0  9996
2 56803  70.0011  26.5645 0002804 268.5131  91.5706 14.98329265107400
Epoch: 2025-05-11T10:03Z
Definitive object data (Epoch: 2025-05-11T10:03:33.348Z)
Latitude
-0.00012°
Longitude
6.22866°
Altitude
574.536 km
Speed
7.574 km/s
True Right ascension
01h 46m 15s
True Declination
0° 00' 00"
Sunlit
Object was in daylight at TLE epoch
Visualization TLE readout
Latitude
32.2801°
Longitude
171.59745°
Altitude
576.715 km
Speed
7.575 km/s
Apparent Right ascension
15h 51m 45s
Apparent Declination
-3° 17' 09"
Sunlit
Object is in full shadow
Visualization observer readout
Local Sidereal Time
07:50:58
Azimuth
72.128° E
Elevation
-24.955°
Doppler factor
1
Orbital elements
Apogee altitude
571.955 km
Perigee altitude
568.058 km
Semi-major axis
6,948.143 km
Eccentricity
0.0002804
Inclination
70.0011°
RAAN
26.5645°
Arg. of periapsis
268.5131°
True anomaly
91.60272°
Mean anomaly
91.5706°
Eccentric anomaly
91.58666°
Mean motion
3.74749 °/min
BSTAR
-0.000020497
Orbital period
96.06 mins
Loading maneuver chart data...
Loading SW <> Apogee altitude chart data...
Loading historical data...
Loading historical data...
Loading historical data...
Loading historical data...
Loading historical data...
Loading historical data...
Loading historical data...

STARLINK-6029 Visibility forecast

Observer location: undefined°, undefined°

Span
Click to sort rows by Start time (UTC) header in descending order
Start Az.
Max El. time (UTC)
Max El. Az.
Max El.
End time (UTC)
End Az.
6 mins2025-05-12 04:15:27.375Z325.924° NNW2025-05-12 04:17:27.375Z282.782° WNW42.246°2025-05-12 04:21:27.375Z165.824° S
6 mins2025-05-12 18:15:27.375Z198.998° SSW2025-05-12 18:17:27.375Z165.092° S44.499°2025-05-12 18:21:27.375Z26.112° NE
|